Regional Weather Roundup
Issued by NWS

Home | Current Version | Previous Version | Graphics & Text | Print | Product List | Glossary On
Versions: 1 2 3 4 5 6 7 8 9 10 11 12 13 14 15 16 17 18 19 20 21 22 23 24 25 26 27 28 29 30 31 32 33 34 35 36 37 38 39 40 41 42 43 44 45 46 47 48 49 50
000
ASUS45 KBOU 211607
RWRCO

WEATHER ROUNDUP FOR COLORADO
NATIONAL WEATHER SERVICE DENVER/BOULDER CO
900 AM MST FRI NOV 21 2014

NOTE: "FAIR" INDICATES FEW OR NO CLOUDS BELOW 12000 FEET WITH NO
SIGNIFICANT WEATHER AND/OR OBSTRUCTIONS TO VISIBILITY.

COZ001>005-013-030-031-211700-
...NORTHWEST COLORADO...

CITY           SKY/WX    TMP DP  RH WIND       PRES   REMARKS
CRAIG          SUNNY     26  20  77 CALM      30.10R
HAYDEN         SUNNY     30  16  55 E7        30.09R WCI  23
MEEKER         SUNNY     34  21  59 CALM      30.10R
MOUNT WERNER   NOT AVBL
STEAMBOAT SPGS SUNNY     24  17  73 CALM      30.10R
WALDEN         PTSUNNY   27  16  63 SE8       30.06R WCI  18
$$

COZ006>008-011-211700-
...WEST CENTRAL VALLEYS...

CITY           SKY/WX    TMP DP  RH WIND       PRES   REMARKS
GRAND JUNCTION SUNNY     33  19  56 SE7       30.11R WCI  27
MONTROSE       MOSUNNY   30  21  69 SE5       30.13R WCI  25
EAGLE          MOSUNNY   25  21  86 CALM      30.16R
RIFLE          SUNNY     28  20  71 CALM      30.14R
DELTA          MOSUNNY   28  17  63 CALM      30.14R
NUCLA          MOSUNNY   27  23  86 CALM      30.15R
$$

COZ017>023-064>068-211700-
...SOUTHWEST COLORADO...

CITY           SKY/WX    TMP DP  RH WIND       PRES   REMARKS
DURANGO        MOSUNNY   31  20  63 CALM      30.11R
CORTEZ         SUNNY     31  23  72 E3        30.10R
PAGOSA SPRINGS MOSUNNY   30  17  57 CALM      30.12R
TELLURIDE      PTSUNNY   28  16  61 E5        30.13R WCI  22
WOLF CREEK PAS CLOUDY    19  12  73 SW14      30.14R WCI   6
$$

COZ009-010-012-014-032>034-037-058>063-211700-
...CENTRAL COLORADO...

CITY           SKY/WX    TMP DP  RH WIND       PRES   REMARKS
ASPEN          SUNNY     27  15  61 S6        30.10R WCI  20
BUENA VISTA    NOT AVBL
COPPER MTN     CLOUDY    23  14  68 W12G18    30.10S WCI  12
BERTHOUD PASS  CLOUDY    14  10  85 N12G24    30.09S WCI   0
COTTONWOOD PAS MOSUNNY   32  12  43 W21G33    30.06S WCI  20
GUNNISON       MOSUNNY   12   7  79 CALM      30.20R
KREMMLING      CLOUDY    25  18  74 CALM      30.14R
LEADVILLE      CLOUDY    27  13  55 NW12      30.08R WCI  17
MONARCH PASS   MOSUNNY   18  12  79 W33       30.18R WCI  -3
SALIDA         MOSUNNY   33  15  47 N13G18    30.13F WCI  24
SUNLIGHT       SUNNY     25  19  80 CALM      30.13S
WILKERSON PASS SUNNY     23  12  63 W10G17    30.08R WCI  12
$$

COZ069>075-211700-
...SAN LUIS VALLEY/SANGRE DE CRISTO MOUNTAINS...

CITY           SKY/WX    TMP DP  RH WIND       PRES   REMARKS
ALAMOSA        PTSUNNY   22  14  71 CALM      30.12R
LA VETA PASS   SUNNY     23  12  63 S12G22    30.07S WCI  12
SAGUACHE       MOSUNNY   30  16  55 NW14      30.11R WCI  20
$$

COZ035-036-038>040-211700-
...NORTHERN COLORADO FRONT RANGE...

CITY           SKY/WX    TMP DP  RH WIND       PRES   REMARKS
DENVER INTL AP MOSUNNY   44  20  38 SW10      29.97R
DMNS CITY PARK   N/A     43  16  33 S9        29.97S
AURORA         MOSUNNY   42  19  39 S8        29.98S
FRONT RANGE AP NOT AVBL
ERIE MUNI ARPT SUNNY     42  28  57 CALM      29.96S
BOULDER MUN AP SUNNY     45  21  39 CALM      29.95S
CENTENNIAL     MOSUNNY   40  23  50 CALM      29.98S
BROOMFIELD     MOSUNNY   46  18  31 VRB3      29.97S
FORT COLLINS   SUNNY     36  27  69 CALM      29.98R
LONGMONT       SUNNY     43  28  54 CALM      29.97S
$$

COZ041-046-047-076>085-087-088-211700-
...PIKES PEAK/PALMER DIVIDE AND SOUTHERN FOOTHILLS...

CITY           SKY/WX    TMP DP  RH WIND       PRES   REMARKS
COLO. SPRINGS  MOSUNNY   43  19  38 NW3       29.99R
A. F. ACADEMY  SUNNY     45  12  25 N7        29.99R
ELLICOTT       LGT RAIN  38  20  48 N5        29.98R
FALCON         NOT AVBL
FORT CARSON    SUNNY     41  23  48 NE6       29.98R
LIMON          SUNNY     38  24  57 W5        29.97F
MONUMENT HILL  SUNNY     41  14  33 NW3       29.99R
TRINIDAD       SUNNY     41  23  48 SW8       30.00R
$$

COZ042>045-048>051-090-091-211700-
...NORTHEAST COLORADO...

CITY           SKY/WX    TMP DP  RH WIND       PRES   REMARKS
GREELEY ARPT   SUNNY     34  21  60 CALM      29.98S
AKRON          PTSUNNY   42  25  50 W9        29.95S
BURLINGTON     SUNNY     39  29  67 S13       29.99S
WRAY           PTSUNNY   40  28  60 SW8       29.99S
STERLING       PTSUNNY   36  28  75 SW6       29.96S
HOLYOKE        PTSUNNY   41  28  60 S6        29.97S
FORT MORGAN    PTSUNNY   38  21  51 W10       29.98R
$$

COZ086-089-092>099-211700-
...SOUTHEAST COLORADO...

CITY           SKY/WX    TMP DP  RH WIND       PRES   REMARKS
PUEBLO         SUNNY     35  26  69 CALM      29.99S
LA JUNTA       SUNNY     34  28  79 W8        30.00S WCI  27
LAMAR          SUNNY     32  28  85 VRB3      30.00S
SPRINGFIELD      N/A     40  30  67 SW5       29.99S
$$


USA.gov is the U.S. government's official web portal to all federal, state and local government web resources and services.